Simultaneous Nadir Overpasses (SNOs) Predictions

Prediction of SNOs between METOP-B and NOAA-19 Satellite Orbit:

Table of predicted SNOs for the next 14.0 days since TLE Epoch: 3/8/2013
Index Date (METOP-B) Time (METOP-B) Lat,Lon (METOP-B) SZA (METOP-B ) Date (NOAA-19) Time (NOAA-19) Lat,Lon (NOAA-19) SZA (NOAA-19 ) Distance(km) Time Diff (sec)
1 03/15/2013 20:21:38 -73.26, 47.89 104.81 03/15/2013 20:20:28 -73.25, 47.81 104.79 2.77 70
2 03/15/2013 21:12:18 73.23,-144.83 75.16 03/15/2013 21:11:25 73.21,-144.83 75.15 2.55 53
3 03/15/2013 22:03:01 -73.19, 22.40 104.90 03/15/2013 22:02:31 -73.17, 22.48 104.91 3.16 30
4 03/15/2013 22:53:41 73.16,-170.32 75.07 03/15/2013 22:53:29 73.17,-170.27 75.08 2.30 12
5 03/15/2013 23:44:23 -73.17, -2.99 104.95 03/15/2013 23:44:36 -73.18, -3.07 104.93 3.44 13
6 03/16/2013 00:35:03 73.14, 164.29 75.02 03/16/2013 00:35:33 73.14, 164.29 75.01 0.31 30
7 03/16/2013 01:25:46 -73.10, -28.48 105.04 03/16/2013 01:26:39 -73.10, -28.40 105.05 2.53 53
8 03/16/2013 02:16:25 73.12, 138.91 74.98 03/16/2013 02:17:37 73.10, 138.85 74.95 2.62 72




NCC Satellite Simultaneous Nadir Overpasses (SNOs) Prediction Service
